Station PTWW1 - 9444900 - Port Townsend, WA Image indicating link to RSS feed of recent meteorological observations for station PTWW1


Conditions at PTWW1 as of
(1:00 pm PDT)
2000 GMT on 05/26/2024:
     

Click on the graph icon in the table below to see a time series plot of the last five days of that observation.

5-day plot - Wind Direction Wind Direction (WDIR): E ( 90 deg true )
5-day plot - Wind Speed Wind Speed (WSPD): 14.0 kts
5-day plot - Wind Gust Wind Gust (GST): 17.1 kts
5-day plot - Atmospheric Pressure Atmospheric Pressure (PRES):30.11 in
5-day plot - Pressure Tendency Pressure Tendency (PTDY):+0.01 in ( Rising )
5-day plot - Water Temperature Water Temperature (WTMP): 50.7 °F
5-day plot - Wind Speed at 10 Meters Wind Speed at 10 meters (WSPD10M): 15.5 kts
5-day plot - Wind Speed at 20 Meters Wind Speed at 20 meters (WSPD20M): 15.5 kts
5-day plot -  Wind Speed, Wind Gust and Atmospheric Pressure Combined plot of Wind Speed, Gust, and Air Pressure
NOS Water Level Observation Network Water Level
Previous observations
TIME
(PDT)
5-day plot - Wind Direction
WDIR
 
5-day plot - Wind Speed
WSPD
kts
5-day plot - Wind Gust
GST
kts
5-day plot - Wave Height
WVHT
ft
5-day plot - Dominant Wave Period
DPD
sec
5-day plot - Average Wave Period
APD
sec
5-day plot - Mean Wave Direction
MWD
 
5-day plot - Atmospheric Pressure
PRES
in
5-day plot - Pressure Tendency
PTDY
in
5-day plot - Air Temperature
ATMP
°F
5-day plot - Water Temperature
WTMP
°F
5-day plot - Dew Point
DEWP
°F
5-day plot - Salinity
SAL
psu
5-day plot - Visibility
VIS
nmi
5-day plot - Tide (above MLLW)
TIDE
ft
2024-05-26 12:54 pm E 13.0 18.1----30.11-- 50.7----
2024-05-26 12:48 pm E 13.0 17.1----30.11-- 50.7----
2024-05-26 12:42 pm E 13.0 17.1----30.11-- 50.7----
2024-05-26 12:36 pm E 14.0 15.9----30.11-- 50.7----
2024-05-26 12:30 pm E 9.9 15.0----30.11- 52.3 50.7----
2024-05-26 12:24 pm E 11.1 15.0----30.11- 52.2 50.7----
2024-05-26 12:18 pm E 11.1 15.0----30.11-- 50.7----
2024-05-26 12:12 pm E 13.0 15.9----30.11-- 50.7----
2024-05-26 12:06 pm E 11.1 17.1----30.11-- 50.7----
2024-05-26 12:00 pm E 12.0 15.0----30.11+0.01 52.0 50.7----
2024-05-26 11:54 am E 11.1 15.9----30.11- 52.2 50.7----
2024-05-26 11:48 am-------30.11- 52.0 50.7----
2024-05-26 11:42 am-------30.11- 52.0 50.7----
2024-05-26 11:36 am-------30.11- 51.8 50.7----
2024-05-26 11:30 amESE 15.0 19.0----30.11- 51.8 50.7----
2024-05-26 11:24 amESE 15.0 18.1----30.10- 51.6 50.7----
2024-05-26 11:18 amESE 15.0 17.1----30.10- 51.6 50.7----
2024-05-26 11:12 amESE 14.0 17.1----30.10- 51.6 50.5----
2024-05-26 11:06 amESE 14.0 17.1----30.10- 51.6 50.5----
2024-05-26 11:00 am E 13.0 15.0------- 50.5----
2024-05-26 10:54 am E 9.9 13.0------- 50.5----
2024-05-26 10:48 am E 9.9 13.0----30.10- 51.6 50.5----
2024-05-26 10:42 am E 11.1 14.0----30.10- 51.6 50.5----
2024-05-26 10:36 am E 9.9 14.0----30.10- 51.4 50.5----
2024-05-26 10:30 am E 9.9 13.0----30.10-- 50.5----
2024-05-26 10:24 am E 8.9 12.0----30.10-- 50.5----
2024-05-26 10:18 am E 7.0 12.0----30.10- 51.1 50.5----
2024-05-26 10:12 amESE 8.9 13.0----30.11- 50.9 50.5----
2024-05-26 10:06 amESE 9.9 12.0----30.10- 50.9 50.5----
2024-05-26 10:00 am E 8.9 12.0----30.10+0.00 50.9 50.5----
2024-05-26 09:54 amESE 9.9 12.0----30.10- 50.7 50.5----
2024-05-26 09:48 am E 9.9 13.0----30.10- 50.7 50.4----
2024-05-26 09:42 amESE 11.1 13.0----30.10- 50.7 50.4----
2024-05-26 09:36 amESE 12.0 13.0----30.10- 50.5 50.4----
2024-05-26 09:30 amESE 13.0 14.0----30.10- 50.4 50.4----
2024-05-26 09:24 amESE 13.0 15.9----30.09- 50.5 50.4----
2024-05-26 09:18 amESE 13.0 15.9----30.09- 50.4 50.4----
2024-05-26 09:12 amESE 13.0 15.0----30.09- 50.2 50.2----
2024-05-26 09:06 amESE 12.0 14.0----30.09- 50.2 50.2----
2024-05-26 09:00 amESE 9.9 12.0----30.10+0.00 50.2 50.2----
2024-05-26 08:54 am E 9.9 12.0----30.10- 50.2 50.2----
2024-05-26 08:48 am E 9.9 12.0----30.10-------
2024-05-26 08:42 am E 8.0 9.9----30.10- 50.0 50.2----
2024-05-26 08:36 am E 11.1 13.0----30.10- 50.0 50.2----
2024-05-26 08:30 amESE 8.9 12.0----30.10- 50.0 50.2----
2024-05-26 08:24 am E 9.9 12.0----30.10- 49.8 50.2----
2024-05-26 08:18 am E 9.9 12.0----30.10- 49.8 50.0----
2024-05-26 08:12 amESE 8.9 11.1----30.10- 49.6 50.0----
2024-05-26 08:06 am E 8.0 9.9----30.09- 49.8 50.0----
2024-05-26 08:00 am E 7.0 8.9----30.10+0.01 49.6 50.0----
2024-05-26 07:54 am E 7.0 8.9----30.10- 49.5 50.0----
2024-05-26 07:48 amESE 6.0 7.0----30.10- 49.5 50.0----
2024-05-26 07:42 amESE 6.0 7.0----30.10- 49.5 50.0----
2024-05-26 07:36 am E 5.1 7.0----30.10- 49.5 50.0----
2024-05-26 07:30 am E 5.1 6.0----30.10- 49.5 50.0----
2024-05-26 07:24 am E 5.1 7.0----30.10- 49.3 50.0----
2024-05-26 07:18 am E 5.1 7.0----30.10- 49.3 50.0----
2024-05-26 07:12 am E 7.0 8.0----30.10- 49.1 50.0----
2024-05-26 07:06 am E 7.0 8.0----30.09- 48.9 50.0----
2024-05-26 07:00 am E 6.0 8.0----30.10+0.02 49.1 50.0----
2024-05-26 06:54 am E 7.0 7.0----30.10- 48.9 50.0----
2024-05-26 06:48 am E 7.0 8.0----30.10- 48.9 50.0----
2024-05-26 06:42 am E 6.0 7.0----30.10- 49.1 50.0----
2024-05-26 06:36 am E 5.1 5.1----30.10- 49.1 50.0----
2024-05-26 06:30 am E 1.9 5.1----30.10-- 50.0----
2024-05-26 06:24 am E 5.1 6.0----30.10-- 50.0----
2024-05-26 06:18 amESE 6.0 6.0----30.10-- 50.0----
2024-05-26 06:12 amESE 5.1 5.1----30.10-- 50.0----
2024-05-26 06:06 amESE 5.1 6.0----30.10-- 50.0----
2024-05-26 06:00 amESE 5.1 6.0----30.10+0.02- 50.0----
2024-05-26 05:54 amESE 5.1 6.0----30.11-- 50.0----
2024-05-26 05:48 amESE 5.1 5.1----30.11- 49.1 50.0----
2024-05-26 05:42 amESE 4.1 5.1----30.11- 49.1 50.0----
2024-05-26 05:36 amESE 1.9 2.9----30.11- 49.3 50.0----
2024-05-26 05:30 amSSE 1.9 2.9----30.11- 49.3 50.0----
2024-05-26 05:24 amSSE 2.9 4.1----30.11- 49.5 50.0----
2024-05-26 05:18 am SE 2.9 6.0----30.10- 49.6 50.0----
2024-05-26 05:12 am SE 5.1 7.0----30.10- 49.5 50.0----
2024-05-26 05:06 amESE 7.0 8.0----30.09- 49.5 50.0----
2024-05-26 05:00 am-------30.09+0.00 49.6-----
2024-05-26 04:54 am-------30.08- 49.5-----
2024-05-26 04:48 amESE 7.0 7.0----30.08- 49.5 50.0----
2024-05-26 04:42 amESE 7.0 8.0----30.08- 49.5 50.0----
2024-05-26 04:36 amESE 7.0 8.9----30.08- 49.5 50.0----
2024-05-26 04:30 am SE 8.0 8.9----30.08- 49.5 50.0----
2024-05-26 04:24 am SE 6.0 8.0----30.08- 49.6 50.0----
2024-05-26 04:18 amESE 7.0 8.0----30.08-------
2024-05-26 04:12 amESE 6.0 8.0----30.08-- 50.0----
2024-05-26 04:06 amESE 8.9 9.9----30.08-- 50.0----
2024-05-26 04:00 amESE 8.9 11.1----30.08+0.00- 50.0----
2024-05-26 03:54 amESE 8.0 9.9----30.08-- 50.0----
2024-05-26 03:48 amESE 8.9 11.1----30.07-- 50.0----
2024-05-26 03:42 am E 8.0 8.9----30.07-- 50.0----
2024-05-26 03:36 am E 8.0 9.9----30.08-- 50.0----
2024-05-26 03:30 am E 8.0 9.9----30.07- 49.8 50.0----
2024-05-26 03:24 am E 8.0 8.9----30.08- 49.8 50.0----
2024-05-26 03:18 am E 6.0 8.0----30.08-- 50.0----
2024-05-26 03:12 am E 5.1 8.0----30.08-- 50.0----
2024-05-26 03:06 am E 7.0 8.0----30.08-- 50.0----
2024-05-26 03:00 am E 6.0 7.0----30.08-0.01 49.5 50.0----
2024-05-26 02:54 am E 4.1 5.1----30.08- 49.5 50.0----
2024-05-26 02:48 am E 4.1 7.0----30.08- 49.3 50.0----
2024-05-26 02:42 am E 2.9 6.0----30.08- 49.3 50.0----
2024-05-26 02:36 amENE 1.9 4.1----30.08- 49.3 50.0----
2024-05-26 02:30 amENE 1.9 5.1----30.08- 49.3 50.0----
2024-05-26 02:24 am E 5.1 6.0----30.08- 49.3 50.0----
2024-05-26 02:18 am E 5.1 7.0----30.08- 49.1 50.0----
2024-05-26 02:12 am SE 2.9 5.1----30.09- 49.1 50.0----
2024-05-26 02:06 am SE 4.1 5.1----30.09- 49.1 50.0----
2024-05-26 02:00 amESE 5.1 5.1----30.09+0.00 49.1 50.0----
2024-05-26 01:54 amESE 5.1 7.0----30.09- 48.9 50.0----
2024-05-26 01:48 amESE 6.0 8.0----30.09-- 50.0----
2024-05-26 01:42 am E 5.1 7.0----30.08-- 50.0----
2024-05-26 01:36 amESE 4.1 6.0----30.08-- 50.0----
2024-05-26 01:30 amESE 5.1 6.0----30.09- 48.9 50.0----
2024-05-26 01:24 amESE 6.0 7.0----30.09- 48.9 50.0----
2024-05-26 01:18 amESE 6.0 7.0----30.09-------
2024-05-26 01:12 amESE 6.0 8.0----30.08- 49.1 49.8----
2024-05-26 01:06 amESE 7.0 8.0----30.08- 49.1 49.8----
2024-05-26 01:00 amESE 7.0 8.0----30.08+0.00 49.1 49.8----
2024-05-26 12:54 amESE 7.0 7.0----30.08- 49.3 49.8----
2024-05-26 12:48 amESE 5.1 6.0----30.08-------
2024-05-26 12:42 amESE 5.1 6.0----30.09- 49.5 49.6----
2024-05-26 12:36 am SE 5.1 5.1----30.09- 49.1 49.6----
2024-05-26 12:30 am SE 5.1 5.1----30.09- 49.1 49.6----
2024-05-26 12:24 am SE 2.9 5.1----30.09- 49.1 49.6----
2024-05-26 12:18 am SE 5.1 5.1----30.09- 49.3 49.6----
2024-05-26 12:12 amSSE 5.1 6.0----30.09- 49.3 49.6----
2024-05-26 12:06 amSSE 4.1 5.1----30.09- 49.3 49.8----
2024-05-26 12:00 amSSE 4.1 5.1----30.09+0.01 49.3 49.6----
2024-05-25 11:54 pm S 2.9 4.1----30.09- 49.3 49.6----
2024-05-25 11:48 pm SW 1.0 1.9----30.09-- 49.6----
2024-05-25 11:42 pm SW 1.0 1.9----30.09- 49.3 49.6----
2024-05-25 11:36 pmSSW 1.9 2.9----30.09- 49.3 49.6----
2024-05-25 11:30 pm SW 2.9 5.1----30.09- 49.1 49.8----
2024-05-25 11:24 pm S 4.1 5.1----30.09- 49.5 49.6----
2024-05-25 11:18 pm S 5.1 5.1----30.09-------
2024-05-25 11:12 pm S 5.1 5.1----30.09- 49.3 49.8----
2024-05-25 11:06 pm S 5.1 5.1----30.09- 49.5 49.8----
2024-05-25 11:00 pm S 5.1 6.0----30.09+0.03 49.3 49.8----
2024-05-25 10:54 pmSSW 4.1 5.1----30.09- 49.1 49.8----
2024-05-25 10:48 pm S 4.1 5.1----30.09- 49.3 49.8----
2024-05-25 10:42 pm S 4.1 6.0----30.09- 49.1 49.8----
2024-05-25 10:36 pm S 4.1 5.1----30.09- 49.5 49.8----
2024-05-25 10:30 pm S 2.9 4.1----30.09- 49.3 49.6----
2024-05-25 10:24 pmSSW 2.9 4.1----30.09- 49.1 49.6----
2024-05-25 10:18 pmSSW 2.9 4.1----30.09-------
2024-05-25 10:12 pm SW 2.9 5.1----30.09- 49.3 49.8----
2024-05-25 10:06 pm SW 2.9 6.0----30.08- 49.3 50.0----
2024-05-25 10:00 pm SW 2.9 6.0----30.08+0.02 49.3 50.2----
2024-05-25 09:54 pmWSW 4.1 6.0----30.08- 49.3 50.2----
2024-05-25 09:48 pmWSW 4.1 7.0----30.08- 49.5 50.2----
2024-05-25 09:42 pmWSW 5.1 8.9----30.08- 49.5 50.2----
2024-05-25 09:36 pmWSW 6.0 8.9----30.08- 49.5 50.2----
2024-05-25 09:30 pmWSW 6.0 8.0----30.08- 49.6 50.2----
2024-05-25 09:24 pm SW 5.1 6.0----30.08- 49.6 50.2----
2024-05-25 09:18 pmWSW 4.1 6.0----30.08-- 50.2----
2024-05-25 09:12 pmWSW 2.9 6.0----30.07- 49.8 50.2----
2024-05-25 09:06 pm W 1.9 4.1----30.07- 50.0 50.2----
2024-05-25 09:00 pmWSW 2.9 5.1----30.07+0.02 50.0 50.2----
2024-05-25 08:54 pmWSW 4.1 7.0----30.07- 50.0 50.2----
2024-05-25 08:48 pmWSW 5.1 7.0----30.07- 50.2 50.2----
2024-05-25 08:42 pmWSW 4.1 8.9----30.07- 50.4 50.2----
2024-05-25 08:36 pm W 6.0 8.0----30.07- 50.4 50.2----
2024-05-25 08:30 pmWSW 7.0 9.9----30.06- 50.5 50.2----
2024-05-25 08:24 pm W 5.1 8.9----30.06- 50.5 50.2----
2024-05-25 08:18 pm W 4.1 8.0----30.06- 50.5 50.0----
2024-05-25 08:12 pmWSW 6.0 9.9----30.06- 50.5 50.0----
2024-05-25 08:06 pm W 5.1 8.9----30.06- 50.5 50.0----
2024-05-25 08:00 pm W 7.0 9.9----30.06+0.02 50.7 50.0----
2024-05-25 07:54 pm W 6.0 9.9----30.06- 50.7 50.0----
2024-05-25 07:48 pm W 6.0 11.1----30.06- 50.7 50.0----
2024-05-25 07:42 pmWSW 8.0 11.1----30.06- 50.5 50.0----
2024-05-25 07:36 pmWSW 7.0 13.0----30.06- 50.7 50.2----
2024-05-25 07:30 pmWSW 8.0 12.0----30.06- 50.7 50.2----
2024-05-25 07:24 pmWSW 8.0 12.0----30.06- 50.7 50.2----
2024-05-25 07:18 pmWSW 8.0 13.0----30.06-- 50.2----
2024-05-25 07:12 pmWSW 8.0 12.0----30.06- 50.7 50.2----
2024-05-25 07:06 pmWSW 8.0 14.0----30.06- 50.7 50.2----
2024-05-25 07:00 pmWSW 11.1 17.1----30.06+0.03 50.7 50.2----
2024-05-25 06:54 pmWSW 8.0 14.0----30.06- 50.7 50.2----
2024-05-25 06:48 pmWSW 8.0 11.1----30.06-- 50.4----
2024-05-25 06:42 pm W 8.0 13.0----30.06- 50.9 50.4----
2024-05-25 06:36 pmWSW 8.0 14.0----30.06- 51.1 50.4----
2024-05-25 06:30 pmWSW 7.0 14.0----30.06- 51.1 50.4----
2024-05-25 06:24 pmWSW 9.9 14.0----30.06- 51.3 50.4----
2024-05-25 06:18 pmWSW 8.9 14.0----30.06- 51.3 50.4----
2024-05-25 06:12 pmWSW 9.9 14.0----30.06- 51.3 50.4----
2024-05-25 06:06 pmWSW 11.1 14.0----30.05- 51.3 50.4----
2024-05-25 06:00 pmWSW 8.0 15.0----30.05- 51.3 50.4----
2024-05-25 05:54 pmWSW 8.0 15.9----30.05- 51.4 50.4----
2024-05-25 05:48 pmWSW 8.0 14.0----30.05-- 50.4----
2024-05-25 05:42 pmWSW 8.0 12.0----30.05- 52.0 50.4----
2024-05-25 05:36 pmWSW 8.0 11.1----30.05- 52.0 50.4----
2024-05-25 05:30 pmWSW 8.0 12.0----30.04- 52.2 50.5----
2024-05-25 05:24 pmWSW 6.0 12.0----30.04- 52.2 50.5----
2024-05-25 05:18 pm SW 8.0 11.1----30.04-- 50.4----
2024-05-25 05:12 pmWSW 7.0 13.0----30.04- 52.2 50.4----
2024-05-25 05:06 pm SW 8.0 12.0----30.04- 52.2 50.4----
2024-05-25 05:00 pmWSW 7.0 11.1----30.04+0.04 52.3 50.4----
2024-05-25 04:54 pmWSW 7.0 12.0----30.03- 52.3 50.4----
2024-05-25 04:48 pm-------30.03- 52.3 50.4----
2024-05-25 04:42 pm-------30.03- 52.3 50.4----
2024-05-25 04:36 pm-------30.03- 52.5 50.4----
2024-05-25 04:30 pmWSW 5.1 12.0----30.03-- 50.4----
2024-05-25 04:24 pmWSW 8.9 14.0----30.03-- 50.2----
2024-05-25 04:00 pm W 7.0 9.9----30.03+0.04 52.9 50.2----
2024-05-25 03:54 pmWSW 8.0 11.1----30.03- 52.7 50.2----
2024-05-25 03:48 pmWSW 7.0 12.0----30.03-- 50.2----
2024-05-25 03:42 pmWSW 5.1 11.1----30.02-- 50.2----
2024-05-25 03:36 pmWSW 8.0 11.1----30.02-- 50.2----
2024-05-25 03:30 pmWSW 8.0 12.0----30.02- 52.3 50.2----
2024-05-25 03:24 pmWSW 5.1 8.9----30.02- 52.3 50.2----
2024-05-25 03:18 pmWSW 8.0 12.0----30.02- 52.3 50.2----
2024-05-25 03:12 pmWSW 8.9 12.0----30.02- 52.0 50.2----
2024-05-25 03:06 pmWSW 8.0 11.1----30.02- 52.0 50.2----
2024-05-25 03:00 pmWSW 8.0 12.0------ 51.8 50.2----
2024-05-25 02:54 pmWSW 7.0 9.9------ 52.0 50.4----
2024-05-25 02:48 pm W 6.0 8.9----30.02-- 50.4----
2024-05-25 02:42 pm W 4.1 12.0----30.02-- 50.4----
2024-05-25 02:36 pmWNW 8.0 11.1----30.01-- 50.4----
2024-05-25 02:30 pm W 7.0 13.0----30.01- 52.0-----
2024-05-25 02:24 pmWSW 8.0 9.9----30.01- 52.3-----
2024-05-25 02:18 pm W 6.0 12.0----30.01- 52.7 50.4----
2024-05-25 02:12 pmWSW 8.0 12.0----30.01- 52.7 50.4----
2024-05-25 02:06 pm SW 7.0 12.0----30.00- 52.5 50.4----
2024-05-25 02:00 pm W 6.0 8.9----30.00+0.05 52.3 50.4----
2024-05-25 01:54 pmWSW 5.1 8.0----30.00- 52.5 50.2----
2024-05-25 01:48 pmWSW 6.0 8.9----30.00-- 50.2----
2024-05-25 01:42 pm W 6.0 9.9----29.99-- 50.2----
2024-05-25 01:36 pmWNW 7.0 12.0----29.99-- 50.2----
2024-05-25 01:30 pm W 7.0 11.1----29.99- 52.3 50.2----
2024-05-25 01:24 pmWNW 4.1 14.0----29.99- 52.5 50.2----
2024-05-25 01:18 pm W 4.1 8.9----29.99- 52.3 50.2----
2024-05-25 01:12 pm W 6.0 8.9----29.99- 52.2 50.2----
2024-05-25 01:06 pm W 2.9 11.1----29.98- 52.2 50.2----
2024-05-25 01:00 pm-------29.98+0.05 52.0 50.2----
2024-05-25 12:54 pm-------29.98- 52.0 50.2----